Wind_Speed
5 8 9 9 11 14 17 20 24 25 25 23 21 22 22 22 23 25 26 27 28 30 32 33 33 34 34 35 36 36 37 38 38 39 40 41 41 42 43 43 44 44 44 45
1 1 4 5 8 12 14 17 21 24 23 23 24 24 23 23 24 24 26 27 28 30 31 31 31 32 33 34 35 35 36 36 37 38 38 38 39 39 39 40 40 41 42 43
2 4 5 7 9 13 14 17 20 22 23 24 24 24 24 24 24 25 26 26 26 27 28 28 29 30 30 31 32 33 33 33 34 34 34 35 35 35 36 37 38 39 40 40
2 5 8 9 11 14 15 17 19 20 22 23 24 24 24 23 23 24 24 24 24 25 26 26 26 27 28 29 29 29 29 29 29 29 30 31 32 32 33 34 35 36 37 38
3 6 10 11 13 15 16 16 17 19 20 21 21 22 22 22 23 23 23 23 24 23 24 24 24 25 25 25 26 26 26 26 26 27 27 28 29 30 30 31 31 32 33 33
5 7 11 12 13 14 15 15 16 17 19 19 20 20 20 20 21 22 22 22 23 23 23 24 23 23 24 24 23 23 23 24 24 25 25 26 26 27 27 27 28 29 29 30
6 9 10 12 13 14 15 15 16 17 18 19 19 18 18 18 18 19 19 20 21 22 22 22 22 22 22 21 21 21 22 22 23 23 23 23 24 24 24 24 24 25 25 25
7 9 10 13 14 14 15 15 16 16 16 17 17 17 17 17 17 17 18 18 19 19 19 19 19 19 19 19 19 20 20 20 20 21 21 21 21 20 20 20 21 21 21 20
8 9 11 12 13 14 14 14 15 15 15 15 15 16 15 15 15 15 16 16 16 16 17 17 17 17 17 18 18 18 18 18 19 19 18 18 18 17 17 17 17 18 17 17
9 10 12 13 13 14 14 15 15 15 15 15 15 14 14 14 14 13 14 14 15 15 15 16 16 16 16 16 16 17 17 17 17 17 16 16 15 15 15 15 15 15 14 13
10 11 12 13 14 14 15 15 15 15 15 14 13 12 12 12 12 12 13 14 15 15 15 15 15 15 15 15 15 15 15 16 15 15 14 14 13 13 12 13 13 12 12 11
10 12 13 14 15 15 15 15 15 15 15 13 13 12 12 12 12 13 14 15 15 14 14 14 14 14 14 14 14 13 13 13 13 13 12 12 11 10 10 10 10 10 10 10
11 13 14 15 16 16 16 16 16 15 15 14 13 13 13 13 13 14 15 15 15 15 14 13 12 13 13 12 11 11 11 11 11 11 10 9 9 8 8 8 8 8 8 8
11 13 14 16 17 17 17 16 16 16 15 14 14 14 14 14 14 16 16 16 15 14 13 11 11 11 10 10 9 9 9 9 8 8 7 7 7 6 6 6 6 6 7 7
11 13 14 16 17 17 17 17 16 16 15 15 15 15 15 15 16 17 17 17 15 13 11 10 9 9 8 8 7 7 8 7 6 6 6 5 5 5 5 5 5 6 6 7
11 13 14 16 17 18 18 17 16 16 16 16 16 16 15 16 17 17 17 17 15 13 11 9 9 8 7 7 7 7 7 6 6 6 6 6 5 5 5 5 5 6 6 7
10 12 14 15 17 18 18 17 17 16 16 16 17 17 16 17 17 18 18 17 15 14 12 11 10 9 8 7 7 7 6 6 6 6 6 6 6 5 5 5 6 6 6 7
10 12 14 15 16 17 18 17 17 17 16 17 17 17 17 18 18 18 18 17 16 15 13 12 11 10 8 8 8 7 6 6 6 7 7 7 6 6 6 6 6 6 7 7
9 12 13 15 16 17 17 17 17 17 17 17 17 17 18 18 18 18 18 18 17 15 14 13 12 11 10 10 9 8 7 7 7 7 7 7 7 7 7 7 7 7 7 8
9 11 13 14 15 16 17 17 17 17 17 17 17 17 18 18 18 18 19 18 18 17 15 14 13 12 11 11 10 9 9 8 8 8 7 7 7 7 7 7 7 8 8 8
8 10 12 14 15 15 16 16 16 16 16 16 17 17 18 18 18 18 18 18 18 18 16 15 14 13 12 12 11 10 10 9 9 9 8 8 7 7 7 7 8 8 9 9
8 10 12 13 14 15 15 16 15 15 15 16 16 16 17 17 18 18 18 18 18 18 17 15 14 14 14 13 12 11 11 11 10 9 9 9 8 8 8 8 9 9 10 10
9 10 11 13 13 14 15 15 15 15 15 15 15 15 16 17 17 17 18 18 18 17 17 16 16 16 16 15 14 13 12 12 11 10 10 10 10 9 10 10 10 11 11 11
10 10 11 12 13 13 14 14 14 14 14 14 14 14 15 15 16 17 17 18 18 18 17 17 17 17 16 16 15 15 14 13 13 12 11 11 11 11 11 11 12 12 12 12
11 11 12 12 13 13 13 13 13 13 13 13 13 13 13 14 14 15 16 16 16 17 16 16 16 16 16 16 16 16 16 15 15 14 13 13 13 12 12 12 12 13 13 13
13 13 13 13 13 13 13 13 13 12 12 12 12 12 12 13 13 13 14 15 15 15 15 15 16 15 15 15 16 16 15 15 15 14 14 14 14 13 13 13 13 13 13 14
16 15 14 14 14 13 13 13 12 12 12 12 11 12 11 12 12 12 12 13 13 14 14 14 14 14 14 15 15 15 14 14 14 14 13 13 13 13 13 13 13 14 14 14
Wind_Direction
195 191 195 214 231 243 245 246 251 260 270 277 283 283 279 276 276 274 273 271 270 271 272 273 274 274 275 275 276 276 276 277 278 280 281 282 283 284 286 287 288 289 291 292
31 202 209 235 250 256 258 256 260 266 274 279 284 284 283 282 280 278 276 274 273 273 273 272 273 274 275 275 276 277 277 279 280 281 283 283 285 287 288 290 291 293 294 296
5 298 284 284 282 277 275 270 271 274 279 285 288 286 285 284 282 281 279 278 277 276 275 276 277 277 276 276 277 278 279 280 282 283 284 286 288 289 292 294 296 296 298 299
318 305 296 294 293 291 287 282 279 281 283 287 287 285 285 284 283 281 282 282 282 280 277 276 277 279 280 280 281 282 282 284 285 286 288 289 291 294 296 297 298 300 301 302
324 294 300 304 301 300 297 292 287 289 290 291 290 288 287 286 284 284 283 282 281 280 280 280 282 283 284 284 285 286 286 287 289 290 291 293 295 297 299 300 301 303 304 305
320 305 300 309 309 309 306 304 300 299 297 295 294 292 291 288 286 286 283 281 280 282 282 283 284 286 288 290 289 289 290 292 293 294 295 296 298 300 302 303 304 306 307 308
321 314 316 316 318 316 314 312 309 306 302 300 300 298 295 293 291 290 289 288 286 286 287 287 288 289 290 290 290 291 292 294 295 296 297 298 300 302 304 305 307 310 312 314
334 330 328 326 325 323 320 318 317 315 312 309 306 304 303 301 299 298 295 293 292 291 290 289 290 291 291 291 291 292 293 295 297 298 299 301 303 304 306 308 312 315 317 320
347 341 337 335 333 331 330 327 325 323 321 318 316 314 312 310 308 304 300 297 295 295 294 294 293 293 292 292 292 293 295 297 298 299 300 302 303 305 308 311 315 319 322 324
351 349 346 343 341 340 337 334 331 328 326 325 324 321 317 315 315 312 309 306 303 300 299 299 297 295 295 295 295 296 296 297 298 298 300 302 304 307 309 312 317 322 325 328
356 354 353 352 349 347 346 344 342 340 337 336 334 330 328 326 324 321 318 315 310 305 303 302 302 302 302 302 300 299 298 298 299 300 302 303 304 307 311 315 319 325 333 337
2 2 1 360 357 355 354 352 350 348 348 346 343 340 338 335 332 329 327 324 319 313 310 308 307 306 305 303 302 303 303 303 302 302 303 303 305 308 313 319 325 332 339 345
5 5 4 3 2 0 359 359 357 356 355 355 354 352 348 345 343 339 336 332 327 322 317 313 312 312 312 311 310 310 311 310 308 308 307 308 309 312 318 325 333 339 345 351
5 5 5 4 3 3 3 2 2 2 2 2 1 358 356 354 351 348 344 341 338 333 326 322 321 322 322 320 319 321 324 324 322 322 318 316 317 320 325 333 340 343 348 353
5 5 5 5 6 5 5 4 4 5 6 6 4 3 1 359 356 354 352 350 348 345 342 338 336 336 336 335 335 337 341 344 346 347 345 341 339 337 338 344 349 350 352 355
4 4 5 6 6 6 6 7 8 8 8 8 7 6 5 3 2 0 359 359 0 1 0 358 357 356 357 359 359 357 360 4 5 7 8 6 4 1 360 358 356 356 356 356
4 4 5 6 7 7 8 9 9 9 10 10 10 10 9 8 8 8 8 9 12 13 14 14 13 14 14 13 10 9 12 17 17 18 20 18 16 14 11 5 3 3 0 359
3 4 4 5 6 7 9 11 12 12 13 13 13 13 13 13 13 13 15 18 19 21 22 24 24 24 23 18 16 17 21 27 26 25 22 19 19 17 13 10 9 7 5 3
358 1 2 4 5 6 7 10 12 13 14 15 16 17 17 17 17 17 18 21 22 24 27 29 31 32 32 29 27 26 27 27 25 22 18 16 16 16 15 13 11 9 8 5
351 356 359 1 3 4 6 8 10 12 14 15 16 18 19 19 20 20 21 22 25 28 29 30 31 32 32 30 28 28 28 26 23 20 16 15 16 16 16 15 13 11 10 10
339 348 354 357 360 2 4 6 8 10 13 15 16 18 19 20 21 22 23 24 26 28 30 30 30 30 31 31 29 29 29 27 25 22 20 20 21 21 20 18 17 17 17 15
324 337 346 351 355 358 0 3 6 8 10 12 15 17 19 20 22 23 25 26 27 30 31 31 32 33 32 31 28 28 29 29 28 28 29 30 30 29 27 26 24 22 22 21
308 324 335 343 348 352 355 359 2 5 7 9 12 14 17 19 22 24 26 28 29 31 31 32 33 34 34 31 29 30 32 33 33 35 36 36 35 35 34 33 32 32 32 30
296 310 323 332 338 343 348 353 357 0 3 6 8 11 14 17 19 22 25 28 29 31 32 33 33 34 35 32 33 37 39 39 40 41 42 42 42 41 40 39 39 38 36 35
287 299 311 320 328 333 339 345 349 353 357 1 4 6 9 13 16 18 21 23 24 27 29 30 31 33 34 33 37 40 41 42 44 45 47 47 47 46 45 44 42 41 39 37
279 290 299 308 316 323 329 335 340 344 348 353 357 360 2 6 10 13 17 20 21 23 25 26 28 30 32 35 38 40 42 43 45 46 47 48 47 47 46 45 44 42 40 39
273 282 290 299 306 311 317 323 328 333 337 342 346 350 353 356 0 4 8 12 16 19 21 23 25 27 29 32 35 38 40 41 43 44 44 43 43 42 43 43 43 41 39 37
Height
5760 5761 5763 5765 5767 5767 5767 5766 5765 5763 5762 5760 5759 5760 5761 5761 5762 5762 5762 5762 5761 5761 5760 5760 5759 5758 5757 5756 5756 5755 5754 5753 5751 5750 5748 5746 5744 5742 5740 5737 5735 5732 5729 5726
5760 5760 5761 5762 5763 5763 5763 5762 5761 5760 5758 5756 5756 5755 5755 5755 5755 5755 5754 5754 5753 5752 5751 5751 5750 5749 5749 5747 5746 5745 5744 5743 5742 5740 5738 5737 5735 5733 5730 5728 5725 5722 5719 5715
5762 5762 5761 5762 5762 5761 5760 5759 5758 5756 5756 5753 5752 5751 5750 5749 5749 5748 5747 5746 5745 5744 5743 5742 5741 5741 5740 5739 5738 5737 5735 5734 5733 5731 5730 5728 5726 5724 5722 5719 5716 5713 5709 5705
5761 5762 5761 5762 5759 5758 5757 5755 5754 5752 5751 5749 5748 5746 5745 5744 5743 5742 5741 5739 5738 5737 5736 5735 5734 5733 5732 5731 5730 5729 5727 5726 5725 5723 5722 5720 5718 5716 5713 5710 5707 5704 5700 5696
5761 5760 5759 5759 5757 5755 5753 5751 5750 5748 5746 5745 5743 5741 5739 5738 5737 5736 5734 5733 5732 5731 5730 5728 5727 5726 5725 5724 5723 5721 5720 5719 5718 5716 5714 5713 5711 5708 5706 5703 5699 5696 5692 5688
5760 5759 5758 5757 5755 5752 5751 5748 5746 5744 5742 5740 5738 5737 5736 5733 5732 5730 5729 5727 5726 5725 5723 5722 5721 5720 5719 5718 5716 5715 5714 5712 5711 5709 5708 5706 5704 5701 5699 5696 5692 5689 5685 5680
5759 5758 5756 5755 5752 5751 5750 5747 5744 5741 5738 5736 5734 5733 5731 5728 5727 5725 5724 5722 5721 5719 5718 5717 5715 5714 5713 5712 5710 5709 5708 5706 5705 5703 5701 5699 5697 5695 5692 5689 5686 5683 5679 5674
5759 5757 5757 5753 5751 5749 5747 5743 5740 5738 5735 5733 5730 5728 5726 5724 5722 5721 5719 5717 5716 5714 5713 5711 5710 5709 5707 5706 5705 5703 5702 5701 5699 5697 5695 5694 5692 5689 5687 5684 5681 5678 5674 5670
5759 5758 5754 5751 5749 5746 5743 5741 5738 5735 5732 5730 5727 5725 5723 5721 5719 5717 5715 5713 5712 5710 5708 5707 5705 5704 5702 5701 5699 5698 5697 5695 5694 5692 5690 5688 5687 5685 5682 5680 5677 5674 5671 5667
5757 5755 5753 5750 5748 5745 5742 5739 5736 5733 5730 5727 5725 5722 5720 5718 5716 5714 5712 5710 5708 5706 5704 5702 5701 5699 5697 5696 5694 5693 5692 5690 5688 5687 5685 5684 5682 5680 5678 5676 5674 5671 5668 5665
5757 5755 5752 5749 5747 5744 5740 5737 5734 5731 5728 5725 5722 5720 5718 5716 5714 5711 5709 5707 5704 5702 5700 5698 5696 5695 5693 5691 5690 5688 5687 5685 5684 5682 5681 5680 5678 5676 5675 5673 5671 5668 5666 5663
5757 5755 5752 5749 5746 5743 5740 5736 5733 5730 5727 5724 5721 5719 5717 5714 5712 5709 5706 5704 5701 5698 5696 5694 5692 5691 5689 5687 5685 5684 5682 5681 5679 5678 5677 5676 5674 5673 5671 5670 5668 5666 5664 5662
5757 5755 5752 5749 5746 5742 5739 5736 5733 5729 5726 5723 5721 5718 5715 5713 5710 5707 5704 5701 5698 5695 5692 5690 5689 5687 5685 5683 5682 5681 5679 5677 5676 5674 5673 5672 5671 5670 5669 5668 5666 5665 5663 5661
5757 5755 5752 5749 5746 5743 5739 5736 5733 5729 5726 5723 5721 5718 5715 5712 5709 5706 5702 5698 5695 5691 5689 5687 5686 5684 5682 5680 5679 5678 5676 5675 5673 5672 5671 5670 5669 5668 5668 5667 5665 5664 5663 5661
5757 5755 5753 5749 5746 5743 5740 5736 5733 5730 5727 5724 5721 5718 5715 5712 5708 5705 5701 5697 5693 5689 5687 5685 5683 5682 5680 5679 5678 5676 5675 5674 5672 5671 5670 5668 5668 5667 5666 5666 5665 5664 5662 5661
5758 5755 5753 5750 5747 5743 5740 5737 5734 5731 5728 5724 5721 5718 5715 5712 5708 5704 5700 5696 5693 5689 5686 5684 5683 5681 5680 5678 5677 5676 5675 5674 5672 5671 5670 5668 5668 5667 5666 5665 5664 5663 5662 5661
5758 5756 5753 5750 5747 5744 5741 5738 5735 5732 5728 5725 5722 5719 5716 5713 5709 5705 5701 5697 5693 5690 5687 5685 5683 5682 5680 5679 5678 5677 5675 5674 5673 5672 5671 5669 5668 5668 5667 5666 5665 5663 5662 5661
5758 5756 5753 5751 5748 5745 5742 5739 5736 5732 5729 5726 5723 5720 5717 5714 5710 5707 5703 5699 5695 5692 5689 5687 5684 5683 5681 5680 5678 5677 5676 5675 5674 5673 5672 5671 5669 5668 5667 5666 5665 5664 5662 5661
5758 5756 5754 5751 5748 5746 5743 5740 5737 5734 5731 5728 5725 5722 5718 5715 5712 5708 5705 5701 5697 5694 5692 5689 5686 5684 5683 5681 5679 5678 5677 5676 5675 5674 5673 5672 5670 5669 5668 5667 5666 5664 5663 5662
5757 5756 5754 5751 5749 5746 5743 5741 5738 5735 5732 5729 5726 5723 5720 5717 5714 5711 5707 5704 5700 5697 5694 5691 5689 5687 5685 5683 5682 5680 5679 5678 5676 5675 5674 5673 5672 5670 5669 5668 5667 5665 5664 5662
5757 5755 5754 5751 5749 5747 5744 5741 5739 5736 5733 5731 5728 5725 5722 5719 5716 5713 5710 5707 5703 5700 5697 5694 5692 5690 5688 5686 5684 5682 5681 5679 5678 5676 5675 5674 5673 5671 5670 5669 5668 5666 5665 5663
5756 5755 5753 5751 5749 5747 5745 5742 5740 5737 5735 5732 5730 5727 5724 5721 5718 5715 5712 5709 5706 5703 5700 5698 5695 5693 5690 5688 5687 5684 5683 5681 5679 5678 5677 5675 5674 5673 5672 5671 5669 5668 5666 5665
5754 5754 5753 5751 5749 5747 5745 5743 5740 5738 5736 5733 5731 5729 5726 5724 5721 5718 5715 5712 5709 5706 5703 5701 5698 5696 5693 5691 5689 5687 5685 5683 5681 5680 5679 5677 5676 5675 5674 5672 5671 5669 5668 5666
5753 5752 5751 5750 5748 5747 5745 5743 5741 5738 5736 5734 5732 5730 5728 5725 5723 5720 5717 5715 5712 5709 5707 5704 5702 5699 5696 5694 5692 5689 5687 5685 5684 5682 5681 5679 5678 5677 5676 5674 5673 5671 5670 5668
5750 5750 5749 5749 5747 5746 5744 5742 5740 5739 5737 5735 5733 5731 5729 5727 5725 5722 5720 5717 5715 5712 5710 5707 5705 5702 5700 5698 5695 5693 5691 5689 5687 5685 5684 5683 5681 5680 5678 5677 5675 5674 5672 5671
5748 5748 5747 5746 5746 5744 5743 5741 5740 5738 5737 5735 5733 5731 5729 5728 5726 5724 5722 5719 5717 5715 5712 5710 5708 5705 5703 5701 5698 5696 5694 5692 5691 5689 5687 5686 5684 5683 5681 5680 5678 5677 5675 5673
5744 5744 5744 5744 5743 5742 5741 5740 5739 5737 5736 5734 5733 5731 5729 5728 5726 5724 5723 5721 5719 5717 5715 5712 5710 5708 5706 5703 5701 5699 5698 5696 5694 5692 5691 5689 5688 5686 5685 5683 5681 5680 5678 5676